Time,TemperatureF,DewpointF,PressureIn,WindDirection,WindDirectionDegrees,WindSpeedMPH,WindSpeedGustMPH,Humidity,HourlyPrecipIn,Conditions,Clouds,dailyrainin,SoftwareType,DateUTC
2013-04-10 00:03:00,46.0,12.2,29.76,NNE,19,16.0,23.3,25,0.00,,,-99.99,FreeWX-Wi 1.01,2013-04-10 04:03:00,
2013-04-10 00:08:00,46.0,14.0,29.76,NNE,20,15.0,21.0,27,0.00,,,-99.99,FreeWX-Wi 1.01,2013-04-10 04:08:00,
2013-04-10 00:13:00,45.9,13.8,29.76,NNE,20,16.0,20.6,27,0.00,,,-99.99,FreeWX-Wi 1.01,2013-04-10 04:13:00,
2013-04-10 00:18:00,45.9,13.8,29.76,NNE,20,16.0,21.9,27,0.00,,,-99.99,FreeWX-Wi 1.01,2013-04-10 04:18:00,
2013-04-10 00:23:00,45.9,13.8,29.76,NNE,19,15.0,22.4,27,0.00,,,-99.99,FreeWX-Wi 1.01,2013-04-10 04:23:00,
2013-04-10 00:28:00,45.9,13.8,29.76,NNE,18,15.0,21.0,27,0.00,,,-99.99,FreeWX-Wi 1.01,2013-04-10 04:28:00,
2013-04-10 00:33:00,45.9,14.5,29.79,NNE,15,14.0,24.2,28,0.00,,,-99.99,FreeWX-Wi 1.01,2013-04-10 04:33:00,
2013-04-10 00:38:00,45.5,14.4,29.79,North,11,14.0,27.1,28,0.00,,,-99.99,FreeWX-Wi 1.01,2013-04-10 04:38:00,
2013-04-10 00:43:00,45.3,14.2,29.79,North,10,14.0,24.6,28,0.00,,,-99.99,FreeWX-Wi 1.01,2013-04-10 04:43:00,
2013-04-10 00:48:00,45.1,14.0,29.76,North,8,15.0,25.1,28,0.00,,,-99.99,FreeWX-Wi 1.01,2013-04-10 04:48:00,
2013-04-10 00:53:00,45.0,13.8,29.76,North,9,15.0,24.2,28,0.00,,,-99.99,FreeWX-Wi 1.01,2013-04-10 04:53:00,
2013-04-10 00:58:00,44.8,14.5,29.76,North,10,16.0,25.5,29,0.00,,,-99.99,FreeWX-Wi 1.01,2013-04-10 04:58:00,
2013-04-10 01:03:00,44.6,14.4,29.76,NNE,13,16.0,26.2,29,0.00,,,-99.99,FreeWX-Wi 1.01,2013-04-10 05:03:00,
2013-04-10 01:08:00,44.4,14.2,29.76,NNE,17,16.0,22.8,29,0.00,,,-99.99,FreeWX-Wi 1.01,2013-04-10 05:08:00,
2013-04-10 01:13:00,44.4,14.2,29.76,NNE,18,16.0,25.5,29,0.00,,,-99.99,FreeWX-Wi 1.01,2013-04-10 05:13:00,
2013-04-10 01:18:00,44.2,14.7,29.79,NNE,20,16.0,23.3,30,0.00,,,-99.99,FreeWX-Wi 1.01,2013-04-10 05:18:00,
2013-04-10 01:23:00,44.1,14.7,29.79,NNE,19,16.0,21.9,30,0.00,,,-99.99,FreeWX-Wi 1.01,2013-04-10 05:23:00,
2013-04-10 01:28:00,43.9,15.3,29.79,NNE,17,16.0,23.7,31,0.00,,,-99.99,FreeWX-Wi 1.01,2013-04-10 05:28:00,
2013-04-10 01:33:00,43.3,16.2,29.79,NNE,15,16.0,23.7,33,0.00,,,-99.99,FreeWX-Wi 1.01,2013-04-10 05:33:00,
2013-04-10 01:38:00,42.4,18.7,29.79,NNE,14,17.0,24.6,38,0.00,,,-99.99,FreeWX-Wi 1.01,2013-04-10 05:38:00,
2013-04-10 01:43:00,42.3,19.0,29.79,NNE,13,16.0,23.7,39,0.00,,,-99.99,FreeWX-Wi 1.01,2013-04-10 05:43:00,
2013-04-10 01:48:00,41.7,19.8,29.79,NNE,12,17.0,27.5,41,0.00,,,-99.99,FreeWX-Wi 1.01,2013-04-10 05:48:00,
2013-04-10 01:53:00,41.4,20.5,29.79,NNE,14,17.0,20.6,43,0.00,,,-99.99,FreeWX-Wi 1.01,2013-04-10 05:53:00,
2013-04-10 01:59:00,41.2,21.0,29.79,NNE,13,16.0,22.4,44,0.00,,,-99.99,FreeWX-Wi 1.01,2013-04-10 05:59:00,
2013-04-10 02:04:00,41.0,21.4,29.79,North,11,16.0,24.6,45,0.00,,,-99.99,FreeWX-Wi 1.01,2013-04-10 06:04:00,
2013-04-10 02:09:00,40.8,21.7,29.79,North,8,15.0,20.6,46,0.00,,,-99.99,FreeWX-Wi 1.01,2013-04-10 06:09:00,
2013-04-10 02:14:00,40.8,21.7,29.79,North,7,14.0,19.2,46,0.00,,,-99.99,FreeWX-Wi 1.01,2013-04-10 06:14:00,
2013-04-10 02:19:00,41.0,22.8,29.85,North,1,14.0,16.3,48,0.00,,,-99.99,FreeWX-Wi 1.01,2013-04-10 06:19:00,
2013-04-10 02:24:00,40.5,23.4,29.85,North,1,14.0,23.3,50,0.00,,,-99.99,FreeWX-Wi 1.01,2013-04-10 06:24:00,
2013-04-10 02:29:00,39.9,23.4,29.85,North,359,14.0,15.9,51,0.00,,,-99.99,FreeWX-Wi 1.01,2013-04-10 06:29:00,
2013-04-10 02:34:00,39.7,24.1,29.82,North,359,14.0,24.6,53,0.00,,,-99.99,FreeWX-Wi 1.01,2013-04-10 06:34:00,
2013-04-10 02:39:00,39.4,24.1,29.82,North,1,14.0,18.3,54,0.00,,,-99.99,FreeWX-Wi 1.01,2013-04-10 06:39:00,
2013-04-10 02:44:00,39.0,25.5,29.82,North,1,14.0,15.4,58,0.00,,,-99.99,FreeWX-Wi 1.01,2013-04-10 06:44:00,
2013-04-10 02:49:00,38.8,26.2,29.79,North,3,14.0,15.4,60,0.00,,,-99.99,FreeWX-Wi 1.01,2013-04-10 06:49:00,
2013-04-10 02:54:00,38.5,25.9,29.79,North,4,13.0,20.1,60,0.00,,,-99.99,FreeWX-Wi 1.01,2013-04-10 06:54:00,
2013-04-10 02:59:00,38.5,25.0,29.79,North,4,13.0,0.0,58,0.00,,,-99.99,FreeWX-Wi 1.01,2013-04-10 06:59:00,
2013-04-10 03:04:00,38.3,24.4,29.79,North,4,13.0,13.6,57,0.00,,,-99.99,FreeWX-Wi 1.01,2013-04-10 07:04:00,
2013-04-10 03:09:00,38.3,24.4,29.79,North,5,13.0,22.8,57,0.00,,,-99.99,FreeWX-Wi 1.01,2013-04-10 07:09:00,
2013-04-10 03:14:00,38.3,25.2,29.79,North,5,13.0,15.0,59,0.00,,,-99.99,FreeWX-Wi 1.01,2013-04-10 07:14:00,
2013-04-10 03:19:00,38.5,25.9,29.79,North,5,13.0,13.0,60,0.00,,,-99.99,FreeWX-Wi 1.01,2013-04-10 07:19:00,
2013-04-10 03:24:00,-999.9,99.9,29.79,North,3,13.0,17.0,58,0.16,,,-99.99,FreeWX-Wi 1.01,2013-04-10 07:24:00,
2013-04-10 03:29:00,-999.9,99.9,29.79,North,3,13.0,17.4,59,0.20,,,-99.99,FreeWX-Wi 1.01,2013-04-10 07:29:00,
2013-04-10 03:34:00,-999.9,99.9,29.85,North,3,12.0,17.4,62,0.20,,,-99.99,FreeWX-Wi 1.01,2013-04-10 07:34:00,
2013-04-10 03:39:00,-999.9,99.9,29.85,North,4,13.0,16.8,62,0.20,,,-99.99,FreeWX-Wi 1.01,2013-04-10 07:39:00,
2013-04-10 03:44:00,-999.9,99.9,29.85,North,7,13.0,19.2,62,0.20,,,-99.99,FreeWX-Wi 1.01,2013-04-10 07:44:00,
2013-04-10 03:49:00,-999.9,99.9,29.88,North,8,12.0,16.3,62,0.20,,,-99.99,FreeWX-Wi 1.01,2013-04-10 07:49:00,
2013-04-10 03:54:00,-999.9,99.9,29.88,North,11,12.0,22.4,60,0.20,,,-99.99,FreeWX-Wi 1.01,2013-04-10 07:54:00,
2013-04-10 03:59:00,-999.9,99.9,29.88,North,11,13.0,21.5,61,0.20,,,-99.99,FreeWX-Wi 1.01,2013-04-10 07:59:00,
2013-04-10 04:04:00,-999.9,99.9,29.82,NNE,12,14.0,37.1,61,0.20,,,-99.99,FreeWX-Wi 1.01,2013-04-10 08:04:00,
2013-04-10 04:09:00,-999.9,99.9,29.82,NNE,17,14.0,25.7,61,0.20,,,-99.99,FreeWX-Wi 1.01,2013-04-10 08:09:00,
2013-04-10 04:14:00,-999.9,99.9,29.82,NNE,18,14.0,14.0,63,0.24,,,-99.99,FreeWX-Wi 1.01,2013-04-10 08:14:00,
2013-04-10 04:19:00,-999.9,99.9,29.94,NNE,18,14.0,14.5,63,0.16,,,-99.99,FreeWX-Wi 1.01,2013-04-10 08:19:00,
2013-04-10 04:24:00,-999.9,99.9,29.94,NNE,20,14.0,19.7,61,0.16,,,-99.99,FreeWX-Wi 1.01,2013-04-10 08:24:00,
2013-04-10 04:29:00,-999.9,99.9,29.94,NNE,19,13.0,15.4,62,0.24,,,-99.99,FreeWX-Wi 1.01,2013-04-10 08:29:00,
2013-04-10 04:34:00,-999.9,-99.9,29.85,NNE,22,13.0,20.1,67,0.31,,,-99.99,FreeWX-Wi 1.01,2013-04-10 08:34:00,
2013-04-10 04:39:00,-999.9,-99.9,29.85,NNE,21,12.0,18.8,68,0.31,,,-99.99,FreeWX-Wi 1.01,2013-04-10 08:39:00,
2013-04-10 07:06:00,35.4,24.8,27.88,North,8,10.0,15.4,65,0.00,,,-99.99,FreeWX-Wi 1.01,2013-04-10 11:06:00,
2013-04-10 07:11:00,35.4,24.8,27.88,North,7,10.0,15.4,65,0.00,,,-99.99,FreeWX-Wi 1.01,2013-04-10 11:11:00,
2013-04-10 07:16:00,35.2,24.3,27.90,North,359,11.0,17.4,64,0.00,,,-99.99,FreeWX-Wi 1.01,2013-04-10 11:16:00,
2013-04-10 07:21:00,35.1,23.7,27.90,North,356,11.0,20.1,63,0.00,,,-99.99,FreeWX-Wi 1.01,2013-04-10 11:21:00,
2013-04-10 07:26:00,35.1,23.7,27.90,North,357,11.0,18.8,63,0.00,,,-99.99,FreeWX-Wi 1.01,2013-04-10 11:26:00,
2013-04-10 07:31:00,35.1,23.7,27.90,North,355,11.0,17.9,63,0.00,,,-99.99,FreeWX-Wi 1.01,2013-04-10 11:31:00,
2013-04-10 07:42:00,34.2,20.5,27.90,North,353,12.0,18.3,57,0.00,,,-99.99,FreeWX-Wi 1.01,2013-04-10 11:42:00,
2013-04-10 07:47:00,34.2,20.5,27.90,North,353,12.0,17.0,57,0.00,,,-99.99,FreeWX-Wi 1.01,2013-04-10 11:47:00,
2013-04-10 07:52:00,34.2,20.1,27.90,North,354,12.0,16.8,56,0.00,,,-99.99,FreeWX-Wi 1.01,2013-04-10 11:52:00,
2013-04-10 07:57:00,34.2,20.5,27.90,North,353,11.0,20.1,57,0.00,,,-99.99,FreeWX-Wi 1.01,2013-04-10 11:57:00,
2013-04-10 08:02:00,34.2,20.5,27.90,North,353,12.0,17.4,57,0.00,,,-99.99,FreeWX-Wi 1.01,2013-04-10 12:02:00,
2013-04-10 08:07:00,34.0,19.9,27.90,North,353,12.0,17.0,56,0.00,,,-99.99,FreeWX-Wi 1.01,2013-04-10 12:07:00,
2013-04-10 08:12:00,34.0,19.6,27.90,North,351,12.0,22.4,55,0.00,,,-99.99,FreeWX-Wi 1.01,2013-04-10 12:12:00,
2013-04-10 08:17:00,34.0,19.0,27.90,North,352,12.0,20.6,54,0.00,,,-99.99,FreeWX-Wi 1.01,2013-04-10 12:17:00,
2013-04-10 08:22:00,34.0,19.0,27.90,North,354,12.0,19.2,54,0.00,,,-99.99,FreeWX-Wi 1.01,2013-04-10 12:22:00,
2013-04-10 08:27:00,34.0,18.7,27.90,North,355,12.0,13.6,53,0.00,,,-99.99,FreeWX-Wi 1.01,2013-04-10 12:27:00,
2013-04-10 08:32:00,34.0,18.7,27.93,North,355,12.0,18.3,53,0.00,,,-99.99,FreeWX-Wi 1.01,2013-04-10 12:32:00,
2013-04-10 08:37:00,33.8,18.1,27.93,North,356,12.0,17.4,52,0.00,,,-99.99,FreeWX-Wi 1.01,2013-04-10 12:37:00,
2013-04-10 08:42:00,33.8,18.1,27.93,North,358,12.0,17.9,52,0.00,,,-99.99,FreeWX-Wi 1.01,2013-04-10 12:42:00,
2013-04-10 08:47:00,34.0,18.1,27.93,North,357,12.0,17.4,52,0.00,,,-99.99,FreeWX-Wi 1.01,2013-04-10 12:47:00,
2013-04-10 08:52:00,34.0,18.7,27.93,North,355,11.0,19.7,53,0.00,,,-99.99,FreeWX-Wi 1.01,2013-04-10 12:52:00,
2013-04-10 08:57:00,34.2,18.9,27.93,North,353,12.0,17.4,53,0.00,,,-99.99,FreeWX-Wi 1.01,2013-04-10 12:57:00,
2013-04-10 09:02:00,34.0,18.1,27.93,North,350,12.0,18.8,52,0.00,,,-99.99,FreeWX-Wi 1.01,2013-04-10 13:02:00,
2013-04-10 09:07:00,33.8,16.7,27.93,North,350,12.0,19.7,49,0.00,,,-99.99,FreeWX-Wi 1.01,2013-04-10 13:07:00,
2013-04-10 09:12:00,34.0,17.2,27.93,North,352,12.0,17.0,50,0.00,,,-99.99,FreeWX-Wi 1.01,2013-04-10 13:12:00,
2013-04-10 09:17:00,34.0,16.9,27.93,North,351,12.0,17.4,49,0.00,,,-99.99,FreeWX-Wi 1.01,2013-04-10 13:17:00,
2013-04-10 09:22:00,34.2,17.1,27.93,North,352,12.0,15.4,49,0.00,,,-99.99,FreeWX-Wi 1.01,2013-04-10 13:22:00,
2013-04-10 09:27:00,34.2,17.1,27.93,North,352,12.0,17.0,49,0.00,,,-99.99,FreeWX-Wi 1.01,2013-04-10 13:27:00,
2013-04-10 09:32:00,34.3,17.2,27.96,North,353,11.0,15.4,49,0.00,,,-99.99,FreeWX-Wi 1.01,2013-04-10 13:32:00,
2013-04-10 09:37:00,34.3,17.2,27.96,North,349,12.0,19.2,49,0.00,,,-99.99,FreeWX-Wi 1.01,2013-04-10 13:37:00,
2013-04-10 09:42:00,34.5,17.4,27.96,NNW,345,12.0,18.3,49,0.00,,,-99.99,FreeWX-Wi 1.01,2013-04-10 13:42:00,
2013-04-10 09:47:00,34.9,17.6,27.96,NNW,344,12.0,14.1,49,0.00,,,-99.99,FreeWX-Wi 1.01,2013-04-10 13:47:00,
2013-04-10 09:52:00,35.2,17.1,27.96,NNW,344,12.0,15.4,47,0.00,,,-99.99,FreeWX-Wi 1.01,2013-04-10 13:52:00,
2013-04-10 09:57:00,36.1,17.4,27.96,NNW,346,12.0,17.4,46,0.00,,,-99.99,FreeWX-Wi 1.01,2013-04-10 13:57:00,
2013-04-10 10:02:00,37.4,18.0,27.96,NNW,348,12.0,21.0,45,0.00,,,-99.99,FreeWX-Wi 1.01,2013-04-10 14:02:00,
2013-04-10 10:08:00,38.5,18.0,27.96,North,349,12.0,22.4,43,0.00,,,-99.99,FreeWX-Wi 1.01,2013-04-10 14:08:00,
2013-04-10 10:13:00,38.7,17.6,27.96,North,351,12.0,21.9,42,0.00,,,-99.99,FreeWX-Wi 1.01,2013-04-10 14:13:00,
2013-04-10 10:18:00,37.9,15.8,27.96,North,351,12.0,16.3,40,0.00,,,-99.99,FreeWX-Wi 1.01,2013-04-10 14:18:00,
2013-04-10 10:23:00,37.0,15.6,27.96,North,352,12.0,19.2,41,0.00,,,-99.99,FreeWX-Wi 1.01,2013-04-10 14:23:00,
2013-04-10 10:28:00,36.9,16.0,27.96,North,352,12.0,21.9,42,0.00,,,-99.99,FreeWX-Wi 1.01,2013-04-10 14:28:00,
2013-04-10 10:33:00,37.0,15.6,27.96,North,354,12.0,19.2,41,0.00,,,-99.99,FreeWX-Wi 1.01,2013-04-10 14:33:00,
2013-04-10 10:38:00,36.9,16.0,27.96,North,357,11.0,17.0,42,0.00,,,-99.99,FreeWX-Wi 1.01,2013-04-10 14:38:00,
2013-04-10 10:43:00,37.4,16.3,27.96,North,359,11.0,17.0,42,0.00,,,-99.99,FreeWX-Wi 1.01,2013-04-10 14:43:00,
2013-04-10 10:48:00,38.3,16.7,27.96,North,359,11.0,15.0,41,0.00,,,-99.99,FreeWX-Wi 1.01,2013-04-10 14:48:00,
2013-04-10 10:53:00,38.8,17.2,27.96,North,358,11.0,14.1,41,0.00,,,-99.99,FreeWX-Wi 1.01,2013-04-10 14:53:00,
2013-04-10 10:58:00,39.6,17.8,27.96,North,358,10.0,15.0,41,0.00,,,-99.99,FreeWX-Wi 1.01,2013-04-10 14:58:00,
2013-04-10 11:03:00,40.5,17.4,27.96,North,2,11.0,17.4,39,0.00,,,-99.99,FreeWX-Wi 1.01,2013-04-10 15:03:00,
2013-04-10 11:08:00,40.1,17.2,27.96,North,358,11.0,14.1,39,0.00,,,-99.99,FreeWX-Wi 1.01,2013-04-10 15:08:00,
2013-04-10 11:13:00,40.6,17.6,27.96,North,0,10.0,15.9,39,0.00,,,-99.99,FreeWX-Wi 1.01,2013-04-10 15:13:00,
2013-04-10 11:18:00,41.2,18.1,27.96,North,3,10.0,16.3,39,0.00,,,-99.99,FreeWX-Wi 1.01,2013-04-10 15:18:00,
2013-04-10 11:23:00,41.5,18.5,27.96,North,5,10.0,15.0,39,0.00,,,-99.99,FreeWX-Wi 1.01,2013-04-10 15:23:00,
2013-04-10 11:28:00,42.8,19.0,27.96,North,5,10.0,14.5,38,0.00,,,-99.99,FreeWX-Wi 1.01,2013-04-10 15:28:00,
2013-04-10 11:33:00,43.3,19.4,27.96,North,5,10.0,15.4,38,0.00,,,-99.99,FreeWX-Wi 1.01,2013-04-10 15:33:00,
2013-04-10 11:38:00,43.7,19.8,27.96,North,5,10.0,12.8,38,0.00,,,-99.99,FreeWX-Wi 1.01,2013-04-10 15:38:00,
2013-04-10 11:43:00,43.3,19.4,27.96,North,2,10.0,13.6,38,0.00,,,-99.99,FreeWX-Wi 1.01,2013-04-10 15:43:00,
2013-04-10 11:48:00,43.7,19.8,27.99,North,359,10.0,15.0,38,0.00,,,-99.99,FreeWX-Wi 1.01,2013-04-10 15:48:00,
2013-04-10 11:53:00,44.2,20.3,27.99,North,358,10.0,13.6,38,0.00,,,-99.99,FreeWX-Wi 1.01,2013-04-10 15:53:00,
2013-04-10 11:58:00,42.8,19.0,27.99,North,1,10.0,17.4,38,0.00,,,-99.99,FreeWX-Wi 1.01,2013-04-10 15:58:00,
2013-04-10 12:03:00,43.0,19.2,27.96,North,3,10.0,15.4,38,0.00,,,-99.99,FreeWX-Wi 1.01,2013-04-10 16:03:00,
2013-04-10 12:08:00,43.3,20.1,27.96,North,6,10.0,14.5,39,0.00,,,-99.99,FreeWX-Wi 1.01,2013-04-10 16:08:00,
2013-04-10 12:13:00,43.0,19.2,27.96,North,8,11.0,16.3,38,0.00,,,-99.99,FreeWX-Wi 1.01,2013-04-10 16:13:00,
2013-04-10 12:18:00,43.0,19.2,27.96,NNE,13,11.0,15.0,38,0.00,,,-99.99,FreeWX-Wi 1.01,2013-04-10 16:18:00,
2013-04-10 12:23:00,43.7,20.3,27.96,NNE,17,11.0,13.2,39,0.00,,,-99.99,FreeWX-Wi 1.01,2013-04-10 16:23:00,
2013-04-10 12:28:00,44.2,20.3,27.96,NNE,17,10.0,12.8,38,0.00,,,-99.99,FreeWX-Wi 1.01,2013-04-10 16:28:00,
2013-04-10 12:33:00,45.5,20.8,27.96,NNE,15,10.0,15.4,37,0.00,,,-99.99,FreeWX-Wi 1.01,2013-04-10 16:33:00,
2013-04-10 12:38:00,45.9,21.0,27.96,NNE,12,10.0,17.0,37,0.00,,,-99.99,FreeWX-Wi 1.01,2013-04-10 16:38:00,
2013-04-10 12:43:00,45.5,21.4,27.96,NNE,13,10.0,13.2,38,0.00,,,-99.99,FreeWX-Wi 1.01,2013-04-10 16:43:00,
2013-04-10 12:48:00,45.1,21.0,27.96,North,10,10.0,15.4,38,0.00,,,-99.99,FreeWX-Wi 1.01,2013-04-10 16:48:00,
2013-04-10 12:53:00,45.1,21.0,27.96,North,8,10.0,15.9,38,0.00,,,-99.99,FreeWX-Wi 1.01,2013-04-10 16:53:00,
2013-04-10 12:58:00,45.0,20.8,27.96,North,11,10.0,13.2,38,0.00,,,-99.99,FreeWX-Wi 1.01,2013-04-10 16:58:00,
2013-04-10 13:03:00,46.0,21.2,27.96,North,11,10.0,14.5,37,0.00,,,-99.99,FreeWX-Wi 1.01,2013-04-10 17:03:00,
2013-04-10 13:08:00,45.3,21.2,27.96,NNE,13,10.0,14.1,38,0.00,,,-99.99,FreeWX-Wi 1.01,2013-04-10 17:08:00,
2013-04-10 13:13:00,45.5,20.8,27.96,North,7,10.0,17.0,37,0.00,,,-99.99,FreeWX-Wi 1.01,2013-04-10 17:13:00,
2013-04-10 13:18:00,46.0,20.7,27.96,North,5,10.0,15.4,36,0.00,,,-99.99,FreeWX-Wi 1.01,2013-04-10 17:18:00,
2013-04-10 13:23:00,45.9,20.5,27.96,North,2,10.0,17.4,36,0.00,,,-99.99,FreeWX-Wi 1.01,2013-04-10 17:23:00,
2013-04-10 13:28:00,46.4,21.6,27.96,North,1,10.0,15.4,37,0.00,,,-99.99,FreeWX-Wi 1.01,2013-04-10 17:28:00,
2013-04-10 13:33:00,46.9,20.7,27.96,North,358,10.0,15.9,35,0.00,,,-99.99,FreeWX-Wi 1.01,2013-04-10 17:33:00,
2013-04-10 13:38:00,46.8,21.2,27.96,North,356,11.0,17.9,36,0.00,,,-99.99,FreeWX-Wi 1.01,2013-04-10 17:38:00,
2013-04-10 13:43:00,46.6,20.5,27.96,North,357,10.0,17.4,35,0.00,,,-99.99,FreeWX-Wi 1.01,2013-04-10 17:43:00,
2013-04-10 13:48:00,46.4,20.3,27.96,North,0,11.0,17.9,35,0.00,,,-99.99,FreeWX-Wi 1.01,2013-04-10 17:48:00,
2013-04-10 13:53:00,46.0,21.2,27.96,North,2,11.0,17.0,37,0.00,,,-99.99,FreeWX-Wi 1.01,2013-04-10 17:53:00,
2013-04-10 13:58:00,46.4,21.6,27.96,North,3,11.0,13.2,37,0.00,,,-99.99,FreeWX-Wi 1.01,2013-04-10 17:58:00,
2013-04-10 14:03:00,47.1,22.3,27.96,North,8,11.0,13.2,37,0.00,,,-99.99,FreeWX-Wi 1.01,2013-04-10 18:03:00,
2013-04-10 14:08:00,47.5,21.9,27.96,North,9,10.0,13.2,36,0.00,,,-99.99,FreeWX-Wi 1.01,2013-04-10 18:08:00,
2013-04-10 14:13:00,47.7,22.1,27.96,NNE,12,10.0,13.2,36,0.00,,,-99.99,FreeWX-Wi 1.01,2013-04-10 18:13:00,
2013-04-10 14:18:00,48.0,21.7,27.96,NNE,12,9.0,13.2,35,0.00,,,-99.99,FreeWX-Wi 1.01,2013-04-10 18:18:00,
2013-04-10 14:23:00,48.4,22.6,27.96,North,11,9.0,10.5,36,0.00,,,-99.99,FreeWX-Wi 1.01,2013-04-10 18:23:00,
2013-04-10 14:28:00,48.6,21.6,27.96,NNE,12,9.0,15.9,34,0.00,,,-99.99,FreeWX-Wi 1.01,2013-04-10 18:28:00,
2013-04-10 14:33:00,48.9,21.0,27.96,North,11,8.0,12.8,33,0.00,,,-99.99,FreeWX-Wi 1.01,2013-04-10 18:33:00,
2013-04-10 14:38:00,48.7,22.3,27.96,NNE,17,8.0,13.2,35,0.00,,,-99.99,FreeWX-Wi 1.01,2013-04-10 18:38:00,
2013-04-10 14:43:00,48.7,21.6,27.96,NNE,17,8.0,12.8,34,0.00,,,-99.99,FreeWX-Wi 1.01,2013-04-10 18:43:00,
2013-04-10 14:48:00,48.6,22.1,27.96,NNE,23,8.0,12.8,35,0.00,,,-99.99,FreeWX-Wi 1.01,2013-04-10 18:48:00,
2013-04-10 14:53:00,48.4,21.4,27.96,NNE,23,8.0,13.2,34,0.00,,,-99.99,FreeWX-Wi 1.01,2013-04-10 18:53:00,
2013-04-10 14:58:00,49.5,23.0,27.96,NNE,24,8.0,13.2,35,0.00,,,-99.99,FreeWX-Wi 1.01,2013-04-10 18:58:00,
2013-04-10 15:04:00,49.1,21.9,27.93,NNE,25,8.0,12.8,34,0.00,,,-99.99,FreeWX-Wi 1.01,2013-04-10 19:04:00,
2013-04-10 15:09:00,48.7,21.0,27.93,NNE,25,8.0,15.9,33,0.00,,,-99.99,FreeWX-Wi 1.01,2013-04-10 19:09:00,
2013-04-10 15:14:00,48.4,21.9,27.93,NNE,26,9.0,15.4,35,0.00,,,-99.99,FreeWX-Wi 1.01,2013-04-10 19:14:00,
2013-04-10 15:19:00,49.1,23.4,27.93,NNE,25,8.0,10.5,36,0.00,,,-99.99,FreeWX-Wi 1.01,2013-04-10 19:19:00,
2013-04-10 15:24:00,49.5,21.6,27.93,NNE,26,8.0,13.6,33,0.00,,,-99.99,FreeWX-Wi 1.01,2013-04-10 19:24:00,
2013-04-10 15:29:00,49.6,21.0,27.93,NNE,26,9.0,12.8,32,0.00,,,-99.99,FreeWX-Wi 1.01,2013-04-10 19:29:00,
2013-04-10 15:34:00,49.6,23.7,27.93,NNE,24,9.0,13.2,36,0.00,,,-99.99,FreeWX-Wi 1.01,2013-04-10 19:34:00,
2013-04-10 15:39:00,49.8,22.6,27.93,NNE,23,8.0,15.0,34,0.00,,,-99.99,FreeWX-Wi 1.01,2013-04-10 19:39:00,
2013-04-10 15:44:00,50.0,22.1,27.93,NNE,17,9.0,15.0,33,0.00,,,-99.99,FreeWX-Wi 1.01,2013-04-10 19:44:00,
2013-04-10 15:49:00,50.4,22.3,27.93,NNE,17,9.0,14.1,33,0.00,,,-99.99,FreeWX-Wi 1.01,2013-04-10 19:49:00,
2013-04-10 15:54:00,49.8,21.2,27.93,NNE,14,9.0,15.0,32,0.00,,,-99.99,FreeWX-Wi 1.01,2013-04-10 19:54:00,
2013-04-10 15:59:00,50.2,20.7,27.93,NNE,15,9.0,12.8,31,0.00,,,-99.99,FreeWX-Wi 1.01,2013-04-10 19:59:00,
2013-04-10 16:04:00,50.7,24.1,27.90,NNE,17,9.0,15.4,35,0.00,,,-99.99,FreeWX-Wi 1.01,2013-04-10 20:04:00,
2013-04-10 16:09:00,50.7,22.6,27.90,NNE,19,9.0,15.4,33,0.00,,,-99.99,FreeWX-Wi 1.01,2013-04-10 20:09:00,
2013-04-10 16:14:00,50.9,22.8,27.90,NNE,22,9.0,16.3,33,0.00,,,-99.99,FreeWX-Wi 1.01,2013-04-10 20:14:00,
2013-04-10 16:19:00,50.5,21.7,27.90,NNE,22,9.0,14.5,32,0.00,,,-99.99,FreeWX-Wi 1.01,2013-04-10 20:19:00,
2013-04-10 16:24:00,51.3,22.5,27.90,NNE,25,9.0,12.3,32,0.00,,,-99.99,FreeWX-Wi 1.01,2013-04-10 20:24:00,
2013-04-10 16:29:00,51.6,23.5,27.90,NNE,22,9.0,12.8,33,0.00,,,-99.99,FreeWX-Wi 1.01,2013-04-10 20:29:00,
2013-04-10 16:34:00,52.0,22.3,27.90,NNE,21,9.0,12.8,31,0.00,,,-99.99,FreeWX-Wi 1.01,2013-04-10 20:34:00,
2013-04-10 16:39:00,52.0,22.3,27.90,NNE,17,9.0,12.3,31,0.00,,,-99.99,FreeWX-Wi 1.01,2013-04-10 20:39:00,
2013-04-10 16:44:00,52.2,22.5,27.90,NNE,15,8.0,13.2,31,0.00,,,-99.99,FreeWX-Wi 1.01,2013-04-10 20:44:00,
2013-04-10 16:49:00,52.2,22.5,27.90,NNE,15,8.0,13.6,31,0.00,,,-99.99,FreeWX-Wi 1.01,2013-04-10 20:49:00,
2013-04-10 16:54:00,52.7,23.0,27.90,NNE,14,8.0,13.6,31,0.00,,,-99.99,FreeWX-Wi 1.01,2013-04-10 20:54:00,
2013-04-10 16:59:00,52.3,21.9,27.90,NNE,13,8.0,11.9,30,0.00,,,-99.99,FreeWX-Wi 1.01,2013-04-10 20:59:00,
2013-04-10 17:04:00,52.2,21.7,27.90,NNE,15,8.0,12.8,30,0.00,,,-99.99,FreeWX-Wi 1.01,2013-04-10 21:04:00,
2013-04-10 17:09:00,52.7,22.1,27.90,NNE,18,8.0,11.4,30,0.00,,,-99.99,FreeWX-Wi 1.01,2013-04-10 21:09:00,
2013-04-10 17:14:00,52.9,22.3,27.90,NNE,20,8.0,12.8,30,0.00,,,-99.99,FreeWX-Wi 1.01,2013-04-10 21:14:00,
2013-04-10 17:19:00,52.9,22.3,27.90,NNE,24,8.0,15.4,30,0.00,,,-99.99,FreeWX-Wi 1.01,2013-04-10 21:19:00,
2013-04-10 17:24:00,52.5,21.9,27.90,NNE,22,8.0,15.0,30,0.00,,,-99.99,FreeWX-Wi 1.01,2013-04-10 21:24:00,
2013-04-10 17:29:00,52.5,21.9,27.90,NNE,23,8.0,12.8,30,0.00,,,-99.99,FreeWX-Wi 1.01,2013-04-10 21:29:00,
2013-04-10 17:34:00,52.7,22.1,27.88,NNE,22,8.0,12.8,30,0.00,,,-99.99,FreeWX-Wi 1.01,2013-04-10 21:34:00,
2013-04-10 17:39:00,52.9,21.6,27.88,NNE,20,8.0,11.0,29,0.00,,,-99.99,FreeWX-Wi 1.01,2013-04-10 21:39:00,
2013-04-10 17:44:00,52.9,22.3,27.88,NNE,19,8.0,12.3,30,0.00,,,-99.99,FreeWX-Wi 1.01,2013-04-10 21:44:00,
2013-04-10 17:49:00,53.1,22.5,27.88,NNE,19,7.0,11.0,30,0.00,,,-99.99,FreeWX-Wi 1.01,2013-04-10 21:49:00,
2013-04-10 17:54:00,53.1,22.5,27.88,NNE,19,8.0,11.0,30,0.00,,,-99.99,FreeWX-Wi 1.01,2013-04-10 21:54:00,
2013-04-10 17:59:00,52.5,21.2,27.88,NNE,17,8.0,14.1,29,0.00,,,-99.99,FreeWX-Wi 1.01,2013-04-10 21:59:00,
2013-04-10 18:04:00,52.5,21.2,27.88,NNE,16,8.0,12.3,29,0.00,,,-99.99,FreeWX-Wi 1.01,2013-04-10 22:04:00,
2013-04-10 18:09:00,52.7,21.4,27.88,NNE,17,8.0,9.2,29,0.00,,,-99.99,FreeWX-Wi 1.01,2013-04-10 22:09:00,
2013-04-10 18:14:00,52.9,21.6,27.88,NNE,14,8.0,10.5,29,0.00,,,-99.99,FreeWX-Wi 1.01,2013-04-10 22:14:00,
2013-04-10 18:19:00,53.2,21.7,27.88,NNE,12,8.0,12.3,29,0.00,,,-99.99,FreeWX-Wi 1.01,2013-04-10 22:19:00,
2013-04-10 18:24:00,53.6,22.1,27.88,NNE,13,8.0,10.5,29,0.00,,,-99.99,FreeWX-Wi 1.01,2013-04-10 22:24:00,
2013-04-10 18:29:00,53.8,22.3,27.88,NNE,14,7.0,11.9,29,0.00,,,-99.99,FreeWX-Wi 1.01,2013-04-10 22:29:00,
2013-04-10 18:34:00,53.4,21.9,27.88,NNE,16,8.0,12.8,29,0.00,,,-99.99,FreeWX-Wi 1.01,2013-04-10 22:34:00,
2013-04-10 18:39:00,53.1,21.7,27.88,NNE,19,8.0,12.8,29,0.00,,,-99.99,FreeWX-Wi 1.01,2013-04-10 22:39:00,
2013-04-10 18:44:00,53.2,21.7,27.88,NNE,16,8.0,13.2,29,0.00,,,-99.99,FreeWX-Wi 1.01,2013-04-10 22:44:00,
2013-04-10 18:49:00,53.1,21.7,27.88,NNE,16,8.0,11.0,29,0.00,,,-99.99,FreeWX-Wi 1.01,2013-04-10 22:49:00,
2013-04-10 18:54:00,52.9,20.7,27.88,NNE,13,8.0,12.3,28,0.00,,,-99.99,FreeWX-Wi 1.01,2013-04-10 22:54:00,
2013-04-10 18:59:00,52.7,20.5,27.88,NNE,13,7.0,10.5,28,0.00,,,-99.99,FreeWX-Wi 1.01,2013-04-10 22:59:00,
2013-04-10 19:04:00,52.7,21.4,27.88,NNE,12,7.0,8.7,29,0.00,,,-99.99,FreeWX-Wi 1.01,2013-04-10 23:04:00,
2013-04-10 19:09:00,52.9,21.6,27.88,North,9,7.0,10.5,29,0.00,,,-99.99,FreeWX-Wi 1.01,2013-04-10 23:09:00,
2013-04-10 19:14:00,53.1,21.7,27.88,NNE,14,7.0,11.0,29,0.00,,,-99.99,FreeWX-Wi 1.01,2013-04-10 23:14:00,
2013-04-10 19:19:00,52.7,20.5,27.88,NNE,15,6.0,8.7,28,0.00,,,-99.99,FreeWX-Wi 1.01,2013-04-10 23:19:00,
2013-04-10 19:24:00,52.2,20.1,27.88,NNE,15,7.0,11.0,28,0.00,,,-99.99,FreeWX-Wi 1.01,2013-04-10 23:24:00,
2013-04-10 19:29:00,51.8,19.8,27.88,NNE,15,6.0,10.1,28,0.00,,,-99.99,FreeWX-Wi 1.01,2013-04-10 23:29:00,
2013-04-10 19:34:00,51.6,20.5,27.88,NNE,19,7.0,11.0,29,0.00,,,-99.99,FreeWX-Wi 1.01,2013-04-10 23:34:00,
2013-04-10 19:39:00,51.6,20.5,27.88,NNE,21,6.0,8.7,29,0.00,,,-99.99,FreeWX-Wi 1.01,2013-04-10 23:39:00,
2013-04-10 19:44:00,51.6,20.5,27.88,NNE,19,6.0,9.6,29,0.00,,,-99.99,FreeWX-Wi 1.01,2013-04-10 23:44:00,
2013-04-10 19:49:00,51.6,20.5,27.90,NNE,19,6.0,10.1,29,0.00,,,-99.99,FreeWX-Wi 1.01,2013-04-10 23:49:00,
2013-04-10 19:54:00,51.4,20.3,27.90,NNE,19,6.0,8.7,29,0.00,,,-99.99,FreeWX-Wi 1.01,2013-04-10 23:54:00,
2013-04-10 19:59:00,50.9,19.0,27.90,NNE,18,6.0,10.1,28,0.00,,,-99.99,FreeWX-Wi 1.01,2013-04-10 23:59:00,
2013-04-10 20:04:00,50.7,19.6,27.90,NNE,17,6.0,10.1,29,0.00,,,-99.99,FreeWX-Wi 1.01,2013-04-11 00:04:00,
2013-04-10 20:09:00,50.7,19.6,27.90,NNE,20,6.0,7.6,29,0.00,,,-99.99,FreeWX-Wi 1.01,2013-04-11 00:09:00,
2013-04-10 20:14:00,50.5,19.4,27.90,NNE,25,6.0,8.1,29,0.00,,,-99.99,FreeWX-Wi 1.01,2013-04-11 00:14:00,
2013-04-10 20:19:00,50.4,19.4,27.90,NNE,29,5.0,8.3,29,0.00,,,-99.99,FreeWX-Wi 1.01,2013-04-11 00:19:00,
2013-04-10 20:24:00,50.2,19.2,27.90,NNE,32,6.0,8.3,29,0.00,,,-99.99,FreeWX-Wi 1.01,2013-04-11 00:24:00,
2013-04-10 20:29:00,49.8,18.9,27.90,NE,34,6.0,9.2,29,0.00,,,-99.99,FreeWX-Wi 1.01,2013-04-11 00:29:00,
2013-04-10 20:34:00,49.6,19.4,27.90,NE,36,6.0,11.0,30,0.00,,,-99.99,FreeWX-Wi 1.01,2013-04-11 00:34:00,
2013-04-10 20:39:00,49.3,18.3,27.90,NNE,33,6.0,8.1,29,0.00,,,-99.99,FreeWX-Wi 1.01,2013-04-11 00:39:00,
2013-04-10 20:44:00,48.9,18.9,27.90,NNE,32,6.0,9.6,30,0.00,,,-99.99,FreeWX-Wi 1.01,2013-04-11 00:44:00,
2013-04-10 20:49:00,48.7,18.7,27.90,NNE,29,6.0,8.3,30,0.00,,,-99.99,FreeWX-Wi 1.01,2013-04-11 00:49:00,
2013-04-10 20:54:00,48.6,18.5,27.90,NNE,28,6.0,8.3,30,0.00,,,-99.99,FreeWX-Wi 1.01,2013-04-11 00:54:00,
2013-04-10 20:59:00,48.2,18.3,27.90,NNE,27,6.0,10.1,30,0.00,,,-99.99,FreeWX-Wi 1.01,2013-04-11 00:59:00,
2013-04-10 21:04:00,48.0,18.9,27.90,NNE,26,6.0,8.7,31,0.00,,,-99.99,FreeWX-Wi 1.01,2013-04-11 01:04:00,
2013-04-10 21:09:00,47.7,19.2,27.90,NNE,26,6.0,6.3,32,0.00,,,-99.99,FreeWX-Wi 1.01,2013-04-11 01:09:00,
2013-04-10 21:14:00,47.3,19.8,27.90,NNE,28,5.0,5.8,33,0.00,,,-99.99,FreeWX-Wi 1.01,2013-04-11 01:14:00,
2013-04-10 21:19:00,46.9,20.1,27.90,NNE,29,5.0,6.7,34,0.00,,,-99.99,FreeWX-Wi 1.01,2013-04-11 01:19:00,
2013-04-10 21:24:00,46.6,20.5,27.90,NNE,31,4.0,6.3,35,0.00,,,-99.99,FreeWX-Wi 1.01,2013-04-11 01:24:00,
2013-04-10 21:29:00,46.4,20.8,27.90,NNE,31,4.0,6.3,36,0.00,,,-99.99,FreeWX-Wi 1.01,2013-04-11 01:29:00,
2013-04-10 21:34:00,46.0,21.2,27.90,NNE,31,4.0,6.7,37,0.00,,,-99.99,FreeWX-Wi 1.01,2013-04-11 01:34:00,
2013-04-10 21:39:00,46.0,21.2,27.90,NNE,31,4.0,6.3,37,0.00,,,-99.99,FreeWX-Wi 1.01,2013-04-11 01:39:00,
2013-04-10 21:44:00,45.9,21.7,27.90,NNE,30,4.0,6.3,38,0.00,,,-99.99,FreeWX-Wi 1.01,2013-04-11 01:44:00,
2013-04-10 21:49:00,45.7,21.6,27.90,NNE,28,4.0,6.3,38,0.00,,,-99.99,FreeWX-Wi 1.01,2013-04-11 01:49:00,
2013-04-10 21:54:00,45.7,21.6,27.90,NNE,28,4.0,6.3,38,0.00,,,-99.99,FreeWX-Wi 1.01,2013-04-11 01:54:00,
2013-04-10 21:59:00,45.5,21.4,27.90,NNE,28,4.0,5.8,38,0.00,,,-99.99,FreeWX-Wi 1.01,2013-04-11 01:59:00,
2013-04-10 22:04:00,45.1,21.0,27.90,NNE,28,4.0,4.9,38,0.00,,,-99.99,FreeWX-Wi 1.01,2013-04-11 02:04:00,
2013-04-10 22:09:00,44.8,21.4,27.90,NNE,32,4.0,5.8,39,0.00,,,-99.99,FreeWX-Wi 1.01,2013-04-11 02:09:00,
2013-04-10 22:14:00,44.4,21.0,27.90,NE,37,4.0,6.3,39,0.00,,,-99.99,FreeWX-Wi 1.01,2013-04-11 02:14:00,
2013-04-10 22:19:00,43.9,20.5,27.90,NE,43,4.0,4.9,39,0.00,,,-99.99,FreeWX-Wi 1.01,2013-04-11 02:19:00,
2013-04-10 22:24:00,43.2,19.9,27.90,NE,49,4.0,4.9,39,0.00,,,-99.99,FreeWX-Wi 1.01,2013-04-11 02:24:00,
2013-04-10 22:29:00,42.8,21.9,27.90,NE,52,3.0,4.9,43,0.00,,,-99.99,FreeWX-Wi 1.01,2013-04-11 02:29:00,
2013-04-10 22:34:00,42.8,23.9,27.90,NE,53,3.0,4.0,47,0.00,,,-99.99,FreeWX-Wi 1.01,2013-04-11 02:34:00,
2013-04-10 22:39:00,43.0,24.6,27.90,NE,50,3.0,4.0,48,0.00,,,-99.99,FreeWX-Wi 1.01,2013-04-11 02:39:00,
2013-04-10 22:44:00,43.0,24.6,27.90,NE,50,3.0,4.0,48,0.00,,,-99.99,FreeWX-Wi 1.01,2013-04-11 02:44:00,
2013-04-10 22:49:00,42.8,24.4,27.90,NE,49,2.0,4.0,48,0.00,,,-99.99,FreeWX-Wi 1.01,2013-04-11 02:49:00,
2013-04-10 22:54:00,42.8,24.4,27.90,NE,47,2.0,0.0,48,0.00,,,-99.99,FreeWX-Wi 1.01,2013-04-11 02:54:00,
2013-04-10 22:59:00,42.8,23.9,27.90,NE,47,1.0,0.0,47,0.00,,,-99.99,FreeWX-Wi 1.01,2013-04-11 02:59:00,
2013-04-10 23:04:00,42.8,23.9,27.93,NE,50,1.0,0.0,47,0.00,,,-99.99,FreeWX-Wi 1.01,2013-04-11 03:04:00,
2013-04-10 23:09:00,42.6,23.9,27.93,North,-999,0.0,0.0,47,0.00,,,-99.99,FreeWX-Wi 1.01,2013-04-11 03:09:00,
2013-04-10 23:14:00,42.4,23.7,27.93,North,-999,0.0,0.0,47,0.00,,,-99.99,FreeWX-Wi 1.01,2013-04-11 03:14:00,
2013-04-10 23:19:00,42.4,24.1,27.90,North,-999,0.0,0.0,48,0.00,,,-99.99,FreeWX-Wi 1.01,2013-04-11 03:19:00,
2013-04-10 23:24:00,42.6,25.3,27.90,North,-999,0.0,4.9,50,0.00,,,-99.99,FreeWX-Wi 1.01,2013-04-11 03:24:00,
2013-04-10 23:29:00,42.8,25.0,27.90,NE,47,1.0,6.3,49,0.00,,,-99.99,FreeWX-Wi 1.01,2013-04-11 03:29:00,
2013-04-10 23:34:00,43.0,24.6,27.90,NE,42,2.0,6.3,48,0.00,,,-99.99,FreeWX-Wi 1.01,2013-04-11 03:34:00,
2013-04-10 23:39:00,43.2,23.7,27.90,NE,37,2.0,6.3,46,0.00,,,-99.99,FreeWX-Wi 1.01,2013-04-11 03:39:00,
2013-04-10 23:44:00,43.2,23.4,27.90,NNE,33,3.0,5.4,45,0.00,,,-99.99,FreeWX-Wi 1.01,2013-04-11 03:44:00,
2013-04-10 23:49:00,43.2,23.4,27.90,NNE,28,4.0,5.8,45,0.00,,,-99.99,FreeWX-Wi 1.01,2013-04-11 03:49:00,
2013-04-10 23:54:00,43.2,22.8,27.90,NNE,24,4.0,5.4,44,0.00,,,-99.99,FreeWX-Wi 1.01,2013-04-11 03:54:00,
2013-04-10 23:59:00,43.3,22.3,27.90,NNE,24,4.0,6.3,43,0.00,,,-99.99,FreeWX-Wi 1.01,2013-04-11 03:59:00,